Logan, UT

8:55 AM MDT on October 21, 2017 (GMT -0600)
Logan-Cache

Weather History for KLGU - November, 2011

Change the Weather History Date:

Monday, November 28, 2011

  Actual Average Record
Temperature  
Mean Temperature 29 °F -  
Max Temperature 37 °F 36 °F 57 °F (1998)
Min Temperature 21 °F 17 °F -8 °F (1992)
Degree Days  
Heating Degree Days 36    
Moisture  
Dew Point 24 °F    
Average Humidity 83    
Maximum Humidity 92    
Minimum Humidity 65    
Precipitation  
Precipitation 0.00 in - - ()
Sea Level Pressure  
Sea Level Pressure 30.45 in    
Wind  
Wind Speed 2 mph (WSW)    
Max Wind Speed 8 mph    
Max Gust Speed -    
Visibility 10 miles    
Events      
Averages and records for this station are not official NWS values.
T = Trace of Precipitation, MM = Missing Value Source: NWS Daily Summary

Daily Weather History Graph

Daily Weather History Graph

Search for Another Location

Airport or City:

Trip Planner

Search our weather history database for the weather conditions in past years. The results will help you decide how hot, cold, wet, or windy it might be!

Date:

Astronomy

Nov. 28, 2011 Rise Set
Actual Time 7:31 AM MST 4:58 PM MST
Civil Twilight 7:00 AM MST 5:29 PM MST
Nautical Twilight 6:26 AM MST 6:03 PM MST
Astronomical Twilight 5:53 AM MST 6:37 PM MST
Moon 10:43 AM MST (11/28) 8:50 PM MST (11/28)
Length of Visible Light 10h 28m
Length of Day
9h 26m
Waxing Crescent, 16% of the Moon is Illuminated
Nov 28
Waxing Crescent
Dec 2
First Quarter
Dec 10
Full
Dec 17
Last Quarter
Dec 24
New

Hourly Weather History & Observations

Time (MST) Temp. Windchill Dew Point Humidity Pressure Visibility Wind Dir Wind Speed Gust Speed Precip Events Conditions
12:51 AM 23.0 °F 18.4 °F 19.9 °F 88% 30.46 in 10.0 mi West 3.5 mph - N/A   Clear
1:51 AM 21.9 °F 17.2 °F 19.0 °F 89% 30.44 in 10.0 mi SSW 3.5 mph - N/A   Clear
2:51 AM 23.0 °F - 19.9 °F 88% 30.46 in 10.0 mi Calm Calm - N/A   Clear
3:51 AM 23.0 °F - 19.9 °F 88% 30.45 in 10.0 mi Calm Calm - N/A   Clear
4:51 AM 21.9 °F - 19.0 °F 89% 30.45 in 10.0 mi Calm Calm - N/A   Clear
5:51 AM 23.0 °F - 19.9 °F 88% 30.45 in 10.0 mi Calm Calm - N/A   Clear
6:51 AM 23.0 °F - 21.0 °F 92% 30.48 in 10.0 mi Calm Calm - N/A   Clear
7:51 AM 25.0 °F - 21.9 °F 88% 30.47 in 10.0 mi Calm Calm - N/A   Clear
8:51 AM 27.0 °F - 24.1 °F 89% 30.49 in 10.0 mi Calm Calm - N/A   Clear
10:51 AM 32.0 °F 28.7 °F 28.0 °F 85% 30.47 in 10.0 mi SW 3.5 mph - N/A   Partly Cloudy
11:51 AM 34.0 °F - 26.1 °F 73% 30.44 in 10.0 mi Calm Calm - N/A   Clear
12:51 PM 37.0 °F 34.5 °F 27.0 °F 67% 30.42 in 10.0 mi NE 3.5 mph - N/A   Mostly Cloudy
1:51 PM 35.1 °F 31.0 °F 26.1 °F 70% 30.44 in 10.0 mi NNE 4.6 mph - N/A   Mostly Cloudy
2:51 PM 37.0 °F 33.3 °F 26.1 °F 65% 30.41 in 10.0 mi SSW 4.6 mph - N/A   Scattered Clouds
3:51 PM 36.0 °F - 27.0 °F 70% 30.42 in 10.0 mi Calm Calm - N/A   Mostly Cloudy
4:51 PM 34.0 °F - 28.0 °F 79% 30.44 in 10.0 mi Calm Calm - N/A   Mostly Cloudy
5:51 PM 34.0 °F - 28.0 °F 79% 30.44 in 10.0 mi Calm Calm - N/A   Overcast
6:51 PM 32.0 °F 28.7 °F 28.0 °F 85% 30.45 in 10.0 mi NNW 3.5 mph - N/A   Overcast
7:51 PM 33.1 °F - 28.9 °F 85% 30.45 in 10.0 mi Calm Calm - N/A   Overcast
8:51 PM 30.9 °F 27.5 °F 28.0 °F 89% 30.44 in 10.0 mi SSE 3.5 mph - N/A   Clear
9:51 PM 27.0 °F 18.7 °F 25.0 °F 92% 30.46 in 9.0 mi North 8.1 mph - N/A   Partly Cloudy
10:51 PM 28.9 °F - 26.1 °F 89% 30.45 in 10.0 mi Calm Calm - N/A   Partly Cloudy
11:51 PM 27.0 °F 21.6 °F 25.0 °F 92% 30.45 in 9.0 mi South 4.6 mph - N/A   Clear